Skip Page Navigation
NASA JPL Caltech
NASA Logo - Jet Propulsion Laboratory + View the NASA Portal
+ Near-Earth Object (NEO) Program
Search JPL
JPL Home Earth Solar System Stars & Galaxies Technology
JPL Solar System Dynamics
BODIES ORBITS EPHEMERIDES TOOLS PHYSICAL DATA DISCOVERY FAQ SITE MAP
JPL Small-Body Database Browser
Search: [ help ]  
120460 Hambach (1990 TD7)
Classification: Main-belt Asteroid          SPK-ID: 2120460
Ephemeris | Orbit Diagram | Orbital Elements | Physical Parameters | Discovery Circumstances | Close-Approach Data ]

[ show orbit diagram ]
Orbital Elements at Epoch 2456800.5 (2014-May-23.0) TDB
Reference: JPL 6 (heliocentric ecliptic J2000)
 Element Value Uncertainty (1-sigma)   Units 
e .2460091004370614 1.2928e-07  
a 2.371530561149338 1.188e-08 AU
q 1.78811246114199 3.0499e-07 AU
i 3.39459681490542 9.567e-06 deg
node 22.55953662988695 0.00010273 deg
peri 357.740224530172 0.00010374 deg
M 171.6198340957385 1.497e-05 deg
tp 2456164.574130652187
(2012-Aug-25.07413065)
5.3186e-05 JED
period 1333.956032363379
3.65
1.0023e-05
2.744e-08
d
yr
n .2698739623090766 2.0278e-09 deg/d
Q 2.954948661156686 1.4802e-08 AU
  Orbit Determination Parameters
   # obs. used (total)      329  
   data-arc span      8600 days (23.55 yr)  
   first obs. used      1990-10-13  
   last obs. used      2014-04-30  
   planetary ephem.      DE431  
   SB-pert. ephem.      SB431-BIG16  
   condition code      0  
   fit RMS      .5679  
   data source      ORB  
   producer      Otto Matic  
   solution date      2014-Jun-11 02:03:46  

Additional Information
 Earth MOID = .789361 AU 
 T_jup = 3.501 
[ show covariance matrix ]

Ephemeris | Orbit Diagram | Orbital Elements | Physical Parameters | Discovery Circumstances | Close-Approach Data ]

Physical Parameter Table
Parameter Symbol Value Units Sigma Reference Notes
absolute magnitude H 16.3 mag n/a MPO251141  

120460 Hambach           Discovered 1990 Oct. 13 by F. Börngen and L. D. Schmadel at Tautenburg.
The Hambach Festival in 1832 was a great meeting of about 30~000 liberals and democrats, among them many members of a Burschenschaft. They demonstrated and asked firmly for a free and united Germany. The meeting place was the Maxburg castle above the Hambach village near Neustadt on the Weinstrasse.
NOTE: some special characters may not display properly (any characters within {} are an attempt to place the proper accent above a character)
Reference: 20060613/MPCPages.arcLast Updated: 2008-05-22

[ show close-approach data ]
Alternate Designations
 1990 TD7 = 2001 QY199 
Ephemeris | Orbit Diagram | Orbital Elements | Physical Parameters | Discovery Circumstances | Close-Approach Data ]
ABOUT SSD CREDITS/AWARDS PRIVACY/COPYRIGHT GLOSSARY LINKS
FirstGov 2014-Jul-24 06:25 UT
(server date/time)  
NASA Home Page
Site Manager:   Donald K. Yeomans
Webmaster  Alan B. Chamberlin